Regional Weather Roundup
Issued by NWS Jackson, KY

Home | Current Version | Previous Version | Text Only | Print | Product List | Glossary Off
Versions: 1 2 3 4 5 6 7 8 9 10 11 12 13 14 15 16 17 18 19 20 21 22 23 24 25 26 27 28 29 30 31 32 33 34 35 36 37 38 39 40 41 42 43 44 45 46 47 48 49 50

000
ASUS43 KJKL 240310
RWRJKL

EAST KENTUCKY HOURLY WEATHER ROUNDUP
NATIONAL WEATHER SERVICE JACKSON KY
1000 PM EST THU NOV 23 2017

NOTE: "FAIR" INDICATES FEW OR NO CLOUDS BELOW 12,000 FEET WITH
NO SIGNIFICANT WEATHER AND/OR OBSTRUCTIONS TO VISIBILITY.

* THESE REPORTS ARE NOT UNDER NWS QUALITY CONTROL AND MAY NOT
  REPORT WEATHER SUCH AS PRECIPITATION AND FOG.

KYZ079-080-083-085-087-088-110-112-115-119-120-240400
...EASTERN KENTUCKY...

CITY           SKY/WX    TMP DP  RH WIND       PRES   REMARKS
JACKSON        CLEAR     40  18  41 S3        30.02F
LONDON         CLEAR     32  25  75 CALM      30.03S
SOMERSET*      CLEAR     32  27  80 CALM      30.05S
MONTICELLO*    CLEAR     27  25  92 CALM      30.06R
WILLIAMSBURG*  CLEAR     34  23  64 CALM      30.03S
MIDDLESBORO*   CLEAR     32  29  88 CALM      30.05S
HARLAN APT*    PTCLDY    34  27  75 CALM      30.04R
PIKE CO APT*     N/A     39  21  48 CALM      30.02F
BIG SANDY APT* CLEAR     37  24  59 CALM      30.04R
MOREHEAD APT*  CLEAR     37  19  48 S3        30.04S
$$

KYZ035-036-041-042-044-050-067-078-099-240400
...CENTRAL KENTUCKY...

CITY           SKY/WX    TMP DP  RH WIND       PRES   REMARKS
MT STERLING*   CLEAR     30  27  86 CALM      30.04S
DANVILLE*      CLEAR     30  27  86 CALM      30.05R
LEXINGTON      CLEAR     31  24  75 SE3       30.03S
FRANKFORT      CLEAR     31  23  72 CALM      30.02S
LOUISVILLE     CLEAR     40  26  57 CALM      30.04S
LEBANON*         N/A     39  21  48 CALM      30.04R
GLASGOW*       CLEAR     32  27  82 CALM      30.04S
BOWLING GREEN  CLEAR     36  27  69 CALM      30.05S
$$

KYZ091>093-OHZ055-061-077-WVZ005-015-034-035-042-240400
...SOUTHERN OHIO/WEST VIRGINIA...

CITY           SKY/WX    TMP DP  RH WIND       PRES   REMARKS
COVINGTON      CLEAR     35  25  66 SW5       30.02S WCI  31
COLUMBUS       CLEAR     32  25  75 CALM      30.02S
DAYTON         CLEAR     33  25  72 SW5       30.02R WCI  29
WILMINGTON     CLEAR     32  25  75 S5        30.01R WCI  27
HUNTINGTON     CLEAR     31  24  75 E3        30.03F
CHARLESTON     CLEAR     32  24  72 CALM      30.04R
PINEVILLE*     CLEAR     29  23  79 MISG      30.08S
BECKLEY        CLEAR     31  18  58 CALM      30.01R
BLUEFIELD      CLEAR     35  12  38 SW5       30.01S WCI  31
LOGAN CO APT*    N/A     37  23  56 CALM      30.02S
$$

VAZ002-007-008-TNZ017-027-036-066-071-240400
...SOUTHWEST VIRGINIA/EAST TENNESSEE...

CITY           SKY/WX    TMP DP  RH WIND       PRES   REMARKS
WISE*          PTCLDY    37  27  65 CALM      30.02S
JONESVILLE*      N/A     32  28  86 CALM      30.05S
ABINGDON*      CLEAR     35  30  83 CALM      30.02S
BRISTOL        CLEAR     33  31  92 CALM      30.03S
MORRISTOWN*    PTCLDY    39  32  75 CALM      30.02S
SEVIERVILLE*   PTCLDY    36  32  87 CALM      30.03S
KNOXVILLE      CLEAR     42  34  73 CALM      30.02S
LAFOLLETTE*    CLEAR     32  32 100 CALM      30.06S
OAK RIDGE      CLEAR     36  33  89 CALM      30.04S
CROSSVILLE     CLEAR     34  23  64 CALM      30.02F
NASHVILLE      CLEAR     37  28  70 S3        30.04S
$$

...KEY TO REMARKS...
VSB - VISIBILITY IN MILES
WCI - WIND CHILL INDEX
HX  - HEAT INDEX

$$



USA.gov is the U.S. government's official web portal to all federal, state and local government web resources and services.